Location: Colle Santa Colomba
(42.0333°N, 12.5667°E)
Time: 01:17:39
(UTC+00:00)

SAOCOM 1-B - Pass Details

Date: 18 August 2022
Orbit: 621 x 623 km, 97.9° (Epoch: 28 September)

Event Time Altitude Azimuth Distance (km) Brightness Sun altitude
Rises 03:38:08 0° 136° (SE) 2,892 ? -8.1°
Reaches altitude 10° 03:40:36 10° 124° (ESE) 1,990 ? -7.7°
Maximum altitude 03:44:10 26° 68° (ENE) 1,243 ? -7.1°
Drops below altitude 10° 03:47:46 10° 12° (NNE) 2,002 ? -6.5°
Sets 03:50:14 0° 360° (N) 2,913 ? -6.1°
